{"data":{"norad_id":62041,"intl_designator":"2024-216K","name":"STARLINK-32456","alt_names":[],"object_type":"PAYLOAD","status":"ACTIVE","operator":null,"country":"US","launch_date":"2024-11-21","launch_site_code":"AFETR","launch_vehicle":null,"mission":null,"orbit_class":"UNKNOWN","rcs_meters":null,"size_class":null,"mass_kg":null,"dimensions":null,"purposes":["comms"],"wikipedia_slug":null,"has_3d_model":false,"image_url":null,"decayed_at":null,"tle_current":{"epoch":"2026-05-24T11:29:09.054528Z","epoch_age_seconds":116575,"freshness":"FRESH","line1":"1 62041U 24216K   26144.47857702  .00002294  00000+0  92931-4 0  9999","line2":"2 62041  42.9964 188.5580 0001854 271.2071  88.8568 15.27556057 85461","mean_motion":15.27556057,"eccentricity":0.0001854,"inclination_deg":42.9964,"raan_deg":188.558,"arg_perigee_deg":271.2071,"mean_anomaly_deg":88.8568,"bstar":9.2931e-5,"rev_number":8546,"period_min":94.268226256001,"perigee_km":481.84871373711,"apogee_km":484.39286812598,"semimajor_km":6861.2577909315,"source":"CELESTRAK","updated_at":"2026-05-25T13:38:19.525541Z"}}}